K4HAP Weather Reports


time (UTC)temp
F
wind
direction
speed
knots
gust
knots
rain 1hr
in
rain 24hr
in
rain mn
in
humidity
%
barometer
mb
20260510194007 91 307 5.2 14.8 0.00 0.00 0.00 54 1015.5
20260510193507 91 246 7.0 14.8 0.00 0.00 0.00 53 1015.4
20260510193019 90 232 7.8 13.9 0.00 0.00 0.00 54 1015.5
20260510192507 90 166 5.2 15.6 0.00 0.00 0.00 54 1015.5
20260510192009 91 275 6.1 15.6 0.00 0.00 0.00 53 1015.4
20260510191522 91 239 8.7 13.9 0.00 0.00 0.00 51 1015.4
20260510191007 92 239 6.1 16.5 0.00 0.00 0.00 51 1015.4
20260510190507 91 267 6.1 16.5 0.00 0.00 0.00 50 1015.4
20260510190028 91 295 7.8 16.5 0.00 0.00 0.00 51 1015.4
20260510185506 91 249 6.1 15.6 0.00 0.00 0.00 51 1015.4
20260510185007 91 301 5.2 14.8 0.00 0.00 0.00 50 1015.4
20260510184517 92 261 6.1 15.6 0.00 0.00 0.00 51 1015.4
20260510184004 92 300 8.7 16.5 0.00 0.00 0.00 51 1015.5
20260510183504 91 271 9.6 18.2 0.00 0.00 0.00 51 1015.6
20260510183004 92 283 11.3 18.2 0.00 0.00 0.00 50 1015.5
20260510182502 91 257 8.7 15.6 0.00 0.00 0.00 52 1015.4
20260510182003 91 275 9.6 14.8 0.00 0.00 0.00 53 1015.5
20260510181504 91 194 7.8 13.9 0.00 0.00 0.00 52 1015.4
20260510181004 92 263 7.8 13.9 0.00 0.00 0.00 51 1015.5
20260510180504 91 278 7.8 13.0 0.00 0.00 0.00 52 1015.4
20260510180005 91 258 5.2 13.0 0.00 0.00 0.00 51 1015.5
20260510175503 90 264 7.8 13.0 0.00 0.00 0.00 53 1015.6
20260510175006 89 270 4.3 13.0 0.00 0.00 0.00 57 1015.6
20260510174507 90 277 2.6 13.0 0.00 0.00 0.00 55 1015.7
20260510174007 92 213 2.6 13.0 0.00 0.00 0.00 55 1015.6
20260510173507 91 279 4.3 9.6 0.00 0.00 0.00 57 1015.6
20260510173004 90 263 3.5 8.7 0.00 0.00 0.00 57 1015.8
20260510172506 90 165 4.3 10.4 0.00 0.00 0.00 58 1015.8
20260510172006 89 212 5.2 10.4 0.00 0.00 0.00 59 1015.9
20260510171518 89 227 3.5 9.6 0.00 0.00 0.00 60 1016.1
20260510171001 89 178 3.5 9.6 0.00 0.00 0.00 61 1016.1
20260510170504 89 148 2.6 6.1 0.00 0.00 0.00 61 1016.1
20260510170005 88 204 1.7 6.1 0.00 0.00 0.00 61 1016.2
20260510165503 89 177 3.5 6.1 0.00 0.00 0.00 59 1016.4
20260510165004 89 190 0.9 7.8 0.00 0.00 0.00 61 1016.4
20260510164510 89 225 4.3 7.8 0.00 0.00 0.00 61 1016.4
20260510164005 88 145 1.7 12.2 0.00 0.00 0.00 61 1016.4
20260510163503 87 155 1.7 12.2 0.00 0.00 0.00 64 1016.6
20260510163016 88 259 5.2 12.2 0.00 0.00 0.00 62 1016.6
20260510162506 87 198 3.5 7.8 0.00 0.00 0.00 63 1016.7
20260510162006 88 224 4.3 7.8 0.00 0.00 0.00 63 1016.8
20260510161507 87 98 1.7 6.1 0.00 0.00 0.00 64 1016.9
20260510161007 87 178 2.6 7.0 0.00 0.00 0.00 65 1017.0
20260510160509 86 243 2.6 7.0 0.00 0.00 0.00 66 1017.0
20260510160003 86 238 2.6 7.0 0.00 0.00 0.00 65 1016.9
20260510155505 86 178 3.5 8.7 0.00 0.00 0.00 65 1016.9
20260510155003 87 178 5.2 12.2 0.00 0.00 0.00 65 1017.0
20260510154508 86 241 7.0 12.2 0.00 0.00 0.00 65 1016.9
20260510154004 87 265 4.3 9.6 0.00 0.00 0.00 68 1016.8
20260510153504 86 268 3.5 11.3 0.00 0.00 0.00 68 1016.9
20260510153011 85 254 7.0 11.3 0.00 0.00 0.00 69 1017.0
20260510152508 85 175 3.5 8.7 0.00 0.00 0.00 67 1017.0
20260510152007 85 192 2.6 9.6 0.00 0.00 0.00 69 1017.0
20260510151513 85 205 4.3 9.6 0.00 0.00 0.00 68 1016.9
20260510151005 85 240 1.7 9.6 0.00 0.00 0.00 70 1016.9
20260510150504 84 209 2.6 10.4 0.00 0.00 0.00 70 1016.9
20260510150011 84 223 4.3 11.3 0.00 0.00 0.00 71 1016.9
20260510145509 84 179 2.6 11.3 0.00 0.00 0.00 70 1016.8
20260510145010 83 188 1.7 8.7 0.00 0.00 0.00 70 1016.8
20260510144510 84 260 2.6 6.1 0.00 0.00 0.00 71 1016.8
20260510144007 84 219 3.5 7.0 0.00 0.00 0.00 71 1016.8
20260510143503 83 171 2.6 7.0 0.00 0.00 0.00 71 1016.7
20260510143004 83 132 2.6 7.0 0.00 0.00 0.00 71 1016.8
20260510142505 83 174 2.6 5.2 0.00 0.00 0.00 71 1016.7
20260510142006 83 114 1.7 7.0 0.00 0.00 0.00 72 1016.6
20260510141514 83 171 3.5 10.4 0.00 0.00 0.00 71 1016.5
20260510141004 83 205 1.7 10.4 0.00 0.00 0.00 73 1016.6
20260510140507 82 220 3.5 7.0 0.00 0.00 0.00 73 1016.5
20260510140016 82 150 2.6 6.1 0.00 0.00 0.00 74 1016.6
20260510135505 81 190 2.6 8.7 0.00 0.00 0.00 75 1016.6
20260510135008 81 200 2.6 8.7 0.00 0.00 0.00 75 1016.6
20260510134520 81 175 3.5 7.8 0.00 0.00 0.00 76 1016.5
20260510134010 81 126 2.6 6.1 0.00 0.00 0.00 76 1016.4
20260510133507 80 161 2.6 7.0 0.00 0.00 0.00 77 1016.5
20260510133019 80 168 3.5 7.0 0.00 0.00 0.00 78 1016.5
20260510132511 79 174 2.6 5.2 0.00 0.00 0.00 79 1016.5
20260510132010 79 157 1.7 4.3 0.00 0.00 0.00 80 1016.4
20260510131512 79 149 0.9 4.3 0.00 0.00 0.00 80 1016.4
20260510131005 79 153 1.7 4.3 0.00 0.00 0.00 81 1016.4
20260510130506 78 153 1.7 4.3 0.00 0.00 0.00 82 1016.4
20260510130014 77 154 0.9 4.3 0.00 0.00 0.00 83 1016.4
20260510125506 77 157 0.9 4.3 0.00 0.00 0.00 83 1016.4
20260510125007 77 173 1.7 3.5 0.00 0.00 0.00 84 1016.3
20260510124518 76 193 0.9 3.5 0.00 0.00 0.00 85 1016.3
20260510124007 76 191 0.9 3.5 0.00 0.00 0.00 85 1016.2
20260510123510 76 192 0.9 3.5 0.00 0.00 0.00 86 1016.2
20260510123026 75 198 0.9 3.5 0.00 0.00 0.00 86 1016.2
20260510122509 75 254 1.7 2.6 0.00 0.00 0.00 87 1016.2
20260510122006 75 177 0.0 4.3 0.00 0.00 0.00 87 1016.0
20260510121526 75 217 0.9 4.3 0.00 0.00 0.00 87 1016.0
20260510121008 75 223 1.7 4.3 0.00 0.00 0.00 88 1015.9
20260510120508 74 194 0.0 4.3 0.00 0.00 0.00 88 1015.9
20260510120028 74 154 0.9 4.3 0.00 0.00 0.00 88 1015.8
20260510115507 74 193 0.9 3.5 0.00 0.00 0.00 88 1015.7
20260510115011 74 198 0.0 3.5 0.00 0.00 0.00 89 1015.6
20260510114515 74 208 0.0 0.0 0.00 0.00 0.00 89 1015.4
20260510114010 74 218 0.0 0.0 0.00 0.00 0.00 89 1015.5
20260510113507 74 208 0.0 0.0 0.00 0.00 0.00 89 1015.3
20260510113016 74 148 0.0 0.0 0.00 0.00 0.00 89 1015.1
20260510112516 74 142 0.0 0.0 0.00 0.00 0.00 89 1015.0
20260510112009 73 157 0.0 0.0 0.00 0.00 0.00 90 1014.9
20260510111538 73 157 0.0 0.9 0.00 0.00 0.00 90 1014.8
20260510111007 73 147 0.0 0.9 0.00 0.00 0.00 90 1014.7
20260510110514 73 147 0.0 0.9 0.00 0.00 0.00 90 1014.7
20260510110028 73 147 0.0 0.9 0.00 0.00 0.00 90 1014.6
20260510105507 73 147 0.0 0.9 0.00 0.00 0.00 90 1014.5
20260510105007 73 147 0.0 1.7 0.00 0.00 0.00 90 1014.5
20260510104538 73 147 0.0 1.7 0.00 0.00 0.00 90 1014.4
20260510104010 73 192 0.0 1.7 0.00 0.00 0.00 90 1014.5
20260510103506 73 157 0.0 0.0 0.00 0.00 0.00 90 1014.5
20260510103018 73 171 0.0 2.6 0.00 0.00 0.00 90 1014.4
20260510102507 73 142 0.0 2.6 0.00 0.00 0.00 90 1014.3
20260510102006 73 163 0.0 3.5 0.00 0.00 0.00 90 1014.3
20260510101526 73 169 0.0 3.5 0.00 0.00 0.00 90 1014.1
20260510101013 73 163 0.0 3.5 0.00 0.00 0.00 90 1014.0
20260510100516 73 159 0.9 3.5 0.00 0.00 0.00 90 1013.9
20260510100024 73 163 0.9 3.5 0.00 0.00 0.00 90 1013.8
20260510095508 73 152 1.7 3.5 0.00 0.00 0.00 90 1013.8
20260510095006 73 131 0.9 3.5 0.00 0.00 0.00 90 1013.9
20260510094509 73 164 0.9 1.7 0.00 0.00 0.00 90 1013.8
20260510094003 73 159 0.0 1.7 0.00 0.00 0.00 90 1013.8
20260510093507 73 159 0.0 2.6 0.00 0.00 0.00 90 1013.8
20260510093015 73 165 0.0 3.5 0.00 0.00 0.00 90 1013.8
20260510092511 73 144 0.9 3.5 0.00 0.00 0.00 90 1013.7
20260510092011 73 169 1.7 4.3 0.00 0.00 0.00 90 1013.7
20260510091542 73 154 1.7 4.3 0.00 0.00 0.00 90 1013.7
20260510091007 73 160 1.7 4.3 0.00 0.00 0.00 90 1013.6
20260510090508 73 159 1.7 4.3 0.00 0.00 0.00 90 1013.5
20260510090027 73 136 1.7 5.2 0.00 0.00 0.00 90 1013.5
20260510085506 73 145 0.9 5.2 0.00 0.00 0.00 90 1013.5
20260510085007 73 126 0.9 3.5 0.00 0.00 0.00 90 1013.4
20260510084528 73 135 1.7 3.5 0.00 0.00 0.00 90 1013.3
20260510084011 73 151 1.7 5.2 0.00 0.00 0.00 90 1013.2
20260510083510 73 151 1.7 5.2 0.00 0.00 0.00 90 1013.1
20260510083019 73 121 1.7 5.2 0.00 0.00 0.00 90 1013.0
20260510082506 73 148 2.6 5.2 0.00 0.00 0.00 90 1013.0
20260510082008 73 151 1.7 3.5 0.00 0.00 0.00 90 1013.1
20260510081535 73 151 1.7 4.3 0.00 0.00 0.00 89 1013.0
20260510081006 73 142 1.7 6.1 0.00 0.00 0.00 89 1013.1
20260510080509 73 139 2.6 6.1 0.00 0.00 0.00 89 1013.2
20260510080015 73 152 3.5 5.2 0.00 0.00 0.00 89 1013.2
20260510075506 73 123 2.6 7.8 0.00 0.00 0.00 89 1013.3
20260510075007 74 135 3.5 7.8 0.00 0.00 0.00 89 1013.3
20260510074529 73 148 2.6 6.1 0.00 0.00 0.00 89 1013.2
20260510074011 74 111 2.6 7.0 0.00 0.00 0.00 89 1013.4
20260510073513 74 127 2.6 7.0 0.00 0.00 0.00 90 1013.4
20260510073036 74 139 2.6 5.2 0.00 0.00 0.00 90 1013.4
20260510072510 74 161 1.7 4.3 0.00 0.00 0.00 90 1013.5
20260510072008 74 150 1.7 3.5 0.00 0.00 0.00 90 1013.6
20260510071534 74 131 1.7 5.2 0.00 0.00 0.00 90 1013.6
20260510071009 74 126 1.7 5.2 0.00 0.00 0.00 90 1013.6
20260510070506 74 130 2.6 5.2 0.00 0.00 0.00 90 1013.6
20260510070028 74 125 2.6 4.3 0.00 0.00 0.00 90 1013.6
20260510065506 74 150 0.9 4.3 0.00 0.00 0.00 90 1013.7
20260510065012 74 124 2.6 5.2 0.00 0.00 0.00 90 1013.7
20260510064546 74 117 1.7 5.2 0.00 0.00 0.00 90 1013.7
20260510064008 74 123 1.7 4.3 0.00 0.00 0.00 89 1013.7
20260510063509 74 120 2.6 4.3 0.00 0.00 0.00 90 1013.8
20260510063025 74 130 1.7 4.3 0.00 0.00 0.00 90 1014.0
20260510062509 74 132 0.9 3.5 0.00 0.00 0.00 90 1014.1
20260510062010 74 165 0.9 6.1 0.00 0.00 0.00 89 1014.3
20260510061541 74 147 1.7 6.1 0.00 0.00 0.00 89 1014.4
20260510061007 74 132 2.6 5.2 0.00 0.00 0.00 89 1014.4
20260510060510 74 128 0.9 2.6 0.00 0.00 0.00 89 1014.4
20260510060035 74 123 1.7 3.5 0.00 0.00 0.00 89 1014.4
20260510055511 74 116 1.7 3.5 0.00 0.00 0.00 89 1014.4
20260510055006 74 122 1.7 4.3 0.00 0.00 0.00 89 1014.5
20260510054503 74 118 1.7 4.3 0.00 0.00 0.00 89 1014.6
20260510054003 73 125 0.9 2.6 0.00 0.00 0.00 89 1014.7
20260510053506 73 123 0.0 2.6 0.00 0.00 0.00 89 1014.8
20260510053016 73 127 0.9 2.6 0.00 0.00 0.00 89 1014.8
20260510052503 73 121 1.7 2.6 0.00 0.00 0.00 89 1014.9
20260510052007 73 135 0.0 1.7 0.00 0.00 0.00 88 1014.9
20260510051504 74 135 0.0 2.6 0.00 0.00 0.00 88 1015.0
20260510051004 74 126 0.9 2.6 0.00 0.00 0.00 88 1014.9
20260510050504 74 123 0.9 2.6 0.00 0.00 0.00 88 1015.1
20260510050004 74 132 1.7 2.6 0.00 0.00 0.00 88 1015.1
20260510045509 74 113 1.7 2.6 0.00 0.00 0.00 88 1015.0
20260510045010 73 107 0.9 2.6 0.00 0.00 0.00 87 1015.1
20260510044507 73 131 0.9 1.7 0.00 0.00 0.00 88 1015.1
20260510044004 73 143 0.0 0.9 0.00 0.00 0.00 89 1015.2
20260510043504 73 111 0.0 0.0 0.00 0.00 0.00 88 1015.4
20260510043003 73 111 0.0 0.0 0.00 0.00 0.00 88 1015.3
20260510042503 73 111 0.0 0.0 0.00 0.00 0.00 88 1015.5
20260510042009 73 111 0.0 1.7 0.00 0.00 0.00 88 1015.5
20260510041503 73 111 0.0 2.6 0.00 0.00 0.00 88 1015.4
20260510041005 73 106 0.9 2.6 0.00 0.00 0.00 88 1015.3
20260510040503 73 99 0.0 0.0 0.00 0.00 0.00 88 1015.3
20260510040006 73 61 0.0 0.0 0.00 0.00 0.00 87 1015.3
20260510035503 73 61 0.0 0.0 0.00 0.00 0.00 87 1015.4
20260510035002 73 61 0.0 0.0 0.00 0.00 0.00 87 1015.3
20260510034504 73 101 0.0 0.0 0.00 0.00 0.00 86 1015.3
20260510034005 73 101 0.0 0.0 0.00 0.00 0.00 85 1015.4
20260510033508 74 101 0.0 0.0 0.00 0.00 0.00 84 1015.4
20260510033004 74 101 0.0 0.0 0.00 0.00 0.00 84 1015.4
20260510032506 73 101 0.0 0.0 0.00 0.00 0.00 84 1015.4
20260510032003 73 101 0.0 0.0 0.00 0.00 0.00 84 1015.4
20260510031504 73 101 0.0 0.0 0.00 0.00 0.00 84 1015.3
20260510031004 73 101 0.0 0.0 0.00 0.00 0.00 84 1015.3
20260510030503 73 101 0.0 0.9 0.00 0.00 0.00 84 1015.3
20260510030007 74 101 0.0 0.9 0.00 0.00 0.00 83 1015.3
20260510025503 74 101 0.0 1.7 0.00 0.00 0.00 82 1015.2
20260510025004 74 101 0.0 2.6 0.00 0.00 0.00 82 1015.1
20260510024510 74 101 0.0 2.6 0.00 0.00 0.00 82 1015.0
20260510024006 74 115 0.9 2.6 0.00 0.00 0.00 82 1014.9
20260510023503 74 98 0.0 1.7 0.00 0.00 0.00 82 1014.7
20260510023012 74 111 0.0 2.6 0.00 0.00 0.00 82 1014.9
20260510022507 74 92 0.9 2.6 0.00 0.00 0.00 81 1014.8
20260510022002 74 113 0.9 2.6 0.00 0.00 0.00 82 1014.7
20260510021511 74 73 0.0 1.7 0.00 0.00 0.00 81 1014.7
20260510021008 74 73 0.0 1.7 0.00 0.00 0.00 81 1014.8
20260510020507 74 74 0.9 2.6 0.00 0.00 0.00 81 1014.7
20260510020014 74 42 1.7 2.6 0.00 0.00 0.00 80 1014.6
20260510015504 74 73 0.0 2.6 0.00 0.00 0.00 80 1014.6
20260510015003 75 56 0.9 2.6 0.00 0.00 0.00 80 1014.6
20260510014516 75 58 0.0 3.5 0.00 0.00 0.00 79 1014.6
20260510014007 75 81 1.7 3.5 0.00 0.00 0.00 79 1014.5
20260510013507 75 360 1.7 4.3 0.00 0.00 0.00 78 1014.5
20260510013025 75 360 2.6 5.2 0.00 0.00 0.00 78 1014.5
20260510012505 75 41 2.6 5.2 0.00 0.00 0.00 78 1014.4
20260510012007 76 71 2.6 5.2 0.00 0.00 0.00 78 1014.4
20260510011524 76 21 1.7 4.3 0.00 0.00 0.00 78 1014.4
20260510011007 76 29 1.7 4.3 0.00 0.00 0.00 77 1014.3
20260510010502 76 348 1.7 5.2 0.00 0.00 0.00 77 1014.3
20260510010014 76 340 1.7 5.2 0.00 0.00 0.00 77 1014.3
20260510005508 76 352 3.5 8.7 0.00 0.00 0.00 77 1014.4
20260510005003 76 5 2.6 8.7 0.00 0.00 0.00 77 1014.2
20260510004507 76 29 0.9 5.2 0.00 0.00 0.00 77 1014.1
20260510004006 76 44 1.7 7.8 0.00 0.00 0.00 77 1014.0
20260510003507 76 28 3.5 7.8 0.00 0.00 0.00 77 1013.9
20260510003004 76 360 3.5 7.8 0.00 0.00 0.00 77 1013.9
20260510002504 77 38 1.7 8.7 0.00 0.00 0.00 77 1013.9
20260510002006 77 352 4.3 8.7 0.00 0.00 0.00 77 1013.8
20260510001511 77 344 3.5 7.8 0.00 0.00 0.00 77 1013.7
20260510001005 77 360 4.3 8.7 0.00 0.00 0.00 77 1013.6
20260510000506 77 352 4.3 8.7 0.00 0.00 0.00 77 1013.6
20260510000026 78 343 4.3 11.3 0.00 0.00 0.00 77 1013.7
20260509235503 78 352 5.2 11.3 0.00 0.00 0.00 76 1013.6
20260509235012 78 5 6.1 11.3 0.00 0.00 0.00 76 1013.4
20260509234536 79 24 4.3 11.3 0.00 0.00 0.00 75 1013.4
20260509234009 80 329 6.1 13.0 0.00 0.00 0.00 74 1013.3
20260509233503 81 352 7.0 16.5 0.00 0.00 0.00 72 1013.3
20260509233035 82 352 9.6 14.8 0.00 0.00 0.00 70 1013.3
20260509232504 82 335 8.7 13.0 0.00 0.00 0.00 68 1013.2
20260509232006 82 337 6.1 13.0 0.00 0.00 0.00 68 1013.1
20260509231516 82 307 7.8 14.8 0.00 0.00 0.00 67 1013.1
20260509231005 83 345 5.2 14.8 0.00 0.00 0.00 67 1013.1
20260509230508 83 319 7.8 13.0 0.00 0.00 0.00 67 1013.0
20260509230022 83 329 3.5 9.6 0.00 0.00 0.00 67 1012.9
20260509225510 83 298 5.2 12.2 0.00 0.00 0.00 66 1012.9
20260509225009 83 352 7.0 12.2 0.00 0.00 0.00 66 1012.8
20260509224525 84 329 7.0 15.6 0.00 0.00 0.00 65 1012.7
20260509224008 84 309 10.4 15.6 0.00 0.00 0.00 64 1012.7
20260509223508 84 312 7.0 13.0 0.00 0.00 0.00 64 1012.6
20260509223027 85 296 7.8 13.0 0.00 0.00 0.00 63 1012.4
20260509222506 85 314 7.8 13.0 0.00 0.00 0.00 62 1012.3
20260509222008 85 295 9.6 13.0 0.00 0.00 0.00 62 1012.3
20260509221524 85 327 7.0 13.0 0.00 0.00 0.00 62 1012.3
20260509221014 86 352 7.8 14.8 0.00 0.00 0.00 61 1012.3
20260509220504 86 317 8.7 14.8 0.00 0.00 0.00 60 1012.2
20260509220019 87 317 7.8 14.8 0.00 0.00 0.00 56 1012.2
20260509215503 88 312 8.7 14.8 0.00 0.00 0.00 55 1012.1
20260509215008 88 325 7.8 13.0 0.00 0.00 0.00 54 1012.0
20260509214513 88 272 7.0 13.0 0.00 0.00 0.00 53 1011.9
20260509214006 89 309 7.8 13.0 0.00 0.00 0.00 52 1012.0
20260509213512 89 290 6.1 12.2 0.00 0.00 0.00 52 1012.0
20260509213018 89 273 7.0 11.3 0.00 0.00 0.00 52 1011.8
20260509212506 90 302 4.3 9.6 0.00 0.00 0.00 52 1011.8
20260509212013 90 275 7.0 11.3 0.00 0.00 0.00 53 1011.7
20260509211525 89 236 5.2 13.9 0.00 0.00 0.00 53 1011.7
20260509211007 89 277 7.0 13.9 0.00 0.00 0.00 53 1011.7
20260509210507 90 296 7.0 13.0 0.00 0.00 0.00 53 1011.6
20260509210030 90 270 6.1 13.9 0.00 0.00 0.00 53 1011.7
20260509205506 90 287 6.1 13.9 0.00 0.00 0.00 54 1011.7
20260509205010 90 279 8.7 13.0 0.00 0.00 0.00 54 1011.8
20260509204503 89 267 7.8 13.9 0.00 0.00 0.00 54 1011.8
20260509204009 89 290 10.4 13.0 0.00 0.00 0.00 55 1011.8
20260509203507 89 298 5.2 14.8 0.00 0.00 0.00 54 1011.7
20260509203008 90 327 9.6 14.8 0.00 0.00 0.00 54 1011.8
20260509202501 89 261 7.0 11.3 0.00 0.00 0.00 54 1011.8
20260509202003 89 278 6.1 11.3 0.00 0.00 0.00 56 1011.7
20260509201503 87 218 4.3 11.3 0.00 0.00 0.00 60 1011.8
20260509201002 86 198 2.6 4.3 0.00 0.00 0.00 64 1011.7
20260509200502 85 146 0.9 4.3 0.00 0.00 0.00 64 1011.9
20260509200007 87 187 1.7 5.2 0.00 0.00 0.00 63 1011.9
20260509195503 86 192 1.7 5.2 0.00 0.00 0.00 63 1011.8
20260509195002 86 203 2.6 6.1 0.00 0.00 0.00 62 1011.8
20260509194510 85 207 1.7 6.1 0.00 0.00 0.00 64 1011.9